Regional Weather Roundup
Issued by NWS Cleveland, OH

Home | Current Version | Previous Version | Text Only | Print | Product List | Glossary Off
Versions: 1 2 3 4 5 6 7 8 9 10 11 12 13 14 15 16 17 18 19 20 21 22 23 24 25 26 27 28 29 30 31 32 33 34 35 36 37 38 39 40 41 42 43 44 45 46 47 48 49 50

000
ASUS41 KCLE 141210
RWRCLE
OHIO REGIONAL WEATHER ROUNDUP
NATIONAL WEATHER SERVICE WILMINGTON, OH
700 AM EST SUN FEB 14 2016

NOTE: "FAIR" INDICATES FEW OR NO CLOUDS BELOW 12,000 FEET WITH NO
SIGNIFICANT WEATHER AND/OR OBSTRUCTIONS TO VISIBILITY.

OHZ001>008-015>018-024>027-034-035-043-044-141300-
   NORTHWEST OHIO

CITY           SKY/WX    TMP DP  RH WIND       PRES   REMARKS
DEFIANCE       FAIR       7   0  73 CALM      30.45F
FINDLAY        FAIR       4   0  83 CALM      30.44S
TOLEDO EXPRESS FAIR       1  -3  83 CALM      30.45F
TOLEDO EXEC    FAIR       5  -1  76 CALM      30.47F
LIMA           FAIR       2  -2  83 SE5       30.43R WCI  -8
$$

OHZ009>014-019>023-028>033-038-089-141300-
   NORTHEAST OHIO

CITY           SKY/WX    TMP DP  RH WIND       PRES   REMARKS
CLE-HOPKINS    MOCLDY     3  -1  83 S6        30.49S WCI  -8
CLE-LAKEFRONT  CLOUDY    12   4  70 S7        30.47S WCI   1
CUY CO. ARPT   MOCLDY    14   0  52 NE6       30.46  WCI   5
LORAIN-ELYRIA  FAIR      -7 -12  79 CALM      30.47S
ASHTABULA      CLOUDY    10   3  73 VRB5      30.45R WCI   2
AKRON-CANTON   FAIR       0  -4  83 S3        30.43S
WOOSTER        FAIR      -7 -12  79 CALM      30.44S
MANSFIELD      FAIR       0  -1  96 SE5       30.41S FOG     WCI -10
YOUNGSTOWN     MOCLDY     0  -4  83 CALM      30.42F
$$

OHZ042-051>053-060>062-070>072-077>081-141300-
  SOUTHWEST OHIO

CITY           SKY/WX    TMP DP  RH WIND       PRES   REMARKS
CINC-COVINGTON NOT AVBL
CINC-LUNKEN    CLOUDY    14   5  67 NE6       30.50F WCI   5
HAMILTON       CLOUDY    13   3  64 E6        30.48F WCI   4
DAYTON         MOCLDY     7   2  80 SE5       30.45F WCI  -2
WRIGHT-PAT AFB CLOUDY     8   0  70 SE3       30.46F
DAYTON GENERAL FAIR       9   0  67 E3        30.44F
WILMINGTON     FAIR       7   1  76 SE3       30.44F
$$

OHZ036-037-039>041-045>050-054>059-063>069-073>076-082>088-141300-
  CENTRAL AND SOUTHEAST OHIO

CITY           SKY/WX    TMP DP  RH WIND       PRES   REMARKS
COLUMBUS       CLOUDY     3  -2  79 S3        30.47S
OSU AIRPORT    FAIR       4   0  83 CALM      30.46R
BOLTON FIELD   NOT AVBL
RICKENBACK AFB FAIR       0  -3  85 CALM      30.48R
NEWARK         FAIR      -1  -7  75 CALM      30.46S
MARION         FAIR       1  -5  75 CALM      30.44S
LANCASTER      FAIR       0  -5  79 CALM      30.47S
ZANESVILLE     FAIR      -2  -7  79 CALM      30.47S
NEW PHILLY     FAIR      -1  52 100 CALM      30.48S
$$



USA.gov is the U.S. government's official web portal to all federal, state and local government web resources and services.